This is the latest recevied weather packets stored in our database for station/object WB0OCV. If no packets are shown the sender has not sent any weather packets the latest 10 day(s).
| Time | Temp. | Humidity | Pressure | Rain* | Wind** | Luminosity | Snow |
|---|---|---|---|---|---|---|---|
| 1777494339 | 9.44° C | 85% | 1015.3 hPa | 0 mm | - | 179 W/m² | - |
| 1777494035 | 10° C | 84% | 1015.8 hPa | 0 mm | - | 152 W/m² | - |
| 1777493733 | 9.44° C | 85% | 1015.7 hPa | 0 mm | - | 161 W/m² | - |
| 1777493431 | 9.44° C | 85% | 1015.9 hPa | 0 mm | - | 129 W/m² | - |
| 1777493126 | 9.44° C | 85% | 1015.9 hPa | 0 mm | - | 121 W/m² | - |
| 1777492824 | 10° C | 83% | 1015.8 hPa | 0 mm | - | 118 W/m² | - |
| 1777492520 | 10° C | 83% | 1015.8 hPa | 0 mm | - | 114 W/m² | - |
| 1777492216 | 10° C | 82% | 1015.8 hPa | 0 mm | - | 117 W/m² | - |
| 1777491914 | 10° C | 82% | 1015.8 hPa | 0 mm | - | 162 W/m² | - |
| 1777491609 | 10.56° C | 81% | 1016 hPa | 0 mm | - | 192 W/m² | - |
| 1777491307 | 10.56° C | 82% | 1016 hPa | 0 mm | - | 335 W/m² | - |
| 1777491004 | 10.56° C | 81% | 1016 hPa | 0 mm | - | 278 W/m² | - |
| 1777490699 | 10.56° C | 82% | 1016 hPa | 0 mm | - | 287 W/m² | - |
| 1777490396 | 10.56° C | 82% | 1016.2 hPa | 0 mm | - | 283 W/m² | - |
| 1777490093 | 10.56° C | 81% | 1016.2 hPa | 0 mm | - | 315 W/m² | - |
| 1777489790 | 11.11° C | 80% | 1016.5 hPa | 0 mm | - | 307 W/m² | - |
| 1777489488 | 11.11° C | 80% | 1016.3 hPa | 0 mm | - | 309 W/m² | - |
| 1777489184 | 11.67° C | 78% | 1016.4 hPa | 0 mm | - | 310 W/m² | - |
| 1777488881 | 11.67° C | 78% | 1016.3 hPa | 0 mm | - | 371 W/m² | - |
| 1777488578 | 11.67° C | 77% | 1016.3 hPa | 0 mm | - | 466 W/m² | - |
| 1777488276 | 11.11° C | 79% | 1016.4 hPa | 0 mm | - | 468 W/m² | - |
| 1777487974 | 11.11° C | 79% | 1016.5 hPa | 0 mm | - | 393 W/m² | - |
| 1777487672 | 11.67° C | 78% | 1016.4 hPa | 0 mm | - | 464 W/m² | - |
| 1777487368 | 11.67° C | 78% | 1016.5 hPa | 0 mm | - | 495 W/m² | - |
| 1777487066 | 11.67° C | 77% | 1016.4 hPa | 0 mm | - | 722 W/m² | - |
* Rain latest hour (hover to see other rain measurements)
** Current wind speed in m/s (hover to see current wind gust speed)